Location: Key Biscayne
(25.6930°N, 80.1630°W)
Time: 18:07:25
(UTC-05:00)

Tiangong 2 - Pass Details

Date: 10 November 2017
Orbit: 386 x 391 km, 42.8° (Epoch: 17 November)

Event Time Altitude Azimuth Distance (km) Brightness Sun altitude
Rises 18:36:14 0° 327° (NNW) 2,268 5.2 -14.3°
Reaches altitude 10° 18:39:47 10° 9° (N) 1,410 3.7 -15.1°
Enters shadow 18:39:52 10° 10° (N) 1,402 3.7 -15.1°
